Location: Asheville, NC
(35.6000°N, 82.5500°W)
Time: 00:30:27
(UTC-04:00)

NUDT-PHONESAT - Pass Details

Date: 15 March 2018
Orbit: 492 x 511 km, 97.4° (Epoch: 24 June)

Event Time Altitude Azimuth Distance (km) Brightness Sun altitude
Rises 06:52:54 0° 33° (NNE) 2,617 ? -10.6°
Reaches altitude 10° 06:55:44 10° 57° (ENE) 1,730 ? -10.0°
Maximum altitude 06:57:58 15° 94° (E) 1,432 ? -9.6°
Drops below altitude 10° 07:00:11 10° 131° (SE) 1,727 ? -9.1°
Sets 07:03:00 0° 155° (SSE) 2,609 ? -8.5°
